Location: Stoke Bliss
(52.2667°N, 2.5167°W)
Time: 13:09:58
(UTC+00:00)

Envisat - Pass Details

Date: 09 December 2021
Orbit: 764 x 766 km, 98.2° (Epoch: 23 January)

Event Time Altitude Azimuth Distance (km) Brightness Sun altitude
Rises 07:22:47 0° 4° (N) 3,248 6.0 -6.5°
Reaches altitude 10° 07:26:07 10° 341° (NNW) 2,316 5.1 -6.1°
Maximum altitude 07:28:46 14° 309° (NW) 2,019 4.5 -5.7°
Drops below altitude 10° 07:31:25 10° 278° (W) 2,309 4.9 -5.4°
Sets 07:34:44 0° 255° (WSW) 3,230 5.8 -4.9°
